GFA320 OBBI-OMDB

Flight info

Callsign GFA320
Flight time 1h 1m
Altitude 25000
Route BHR345/30R BHR ASTAD N318 RESAR KUPRO N300 LORID LORI4D
Aircraft A320/M-V/N

Departure

Time 2026-05-08 17:18
Airport Bahrain International Airport (OBBI)

Arrival

Time 2026-05-08 18:19
Airport Dubai International Airport (OMDB)
Time Latitude Longitude Altitude Speed Heading
2026-05-08 16:50 26.26586 50.63434 7 ft 0 kts 212°
2026-05-08 16:52 26.26802 50.63065 17 ft 0 kts 212°
2026-05-08 17:10 26.26811 50.63071 16 ft 4 kts 212°
2026-05-08 17:10 26.26833 50.63086 16 ft 4 kts 211°
2026-05-08 17:10 26.26860 50.63104 17 ft 4 kts 211°
2026-05-08 17:11 26.26888 50.63111 18 ft 1 kts 124°
2026-05-08 17:14 26.26855 50.63163 16 ft 23 kts 125°
2026-05-08 17:15 26.26786 50.63288 16 ft 18 kts 112°
2026-05-08 17:15 26.26825 50.63411 15 ft 18 kts 77°
2026-05-08 17:15 26.26779 50.63544 16 ft 19 kts 124°
2026-05-08 17:15 26.26689 50.63697 16 ft 29 kts 122°
2026-05-08 17:16 26.26567 50.63897 17 ft 33 kts 124°
2026-05-08 17:16 26.26434 50.64131 17 ft 38 kts 123°
2026-05-08 17:16 26.26285 50.64390 14 ft 42 kts 123°
2026-05-08 17:16 26.26122 50.64665 14 ft 44 kts 123°
2026-05-08 17:17 26.26018 50.64900 16 ft 18 kts 80°
2026-05-08 17:17 26.26047 50.64961 17 ft 0 kts 47°
2026-05-08 17:17 26.26121 50.64993 19 ft 22 kts 351°
2026-05-08 17:17 26.26226 50.64843 17 ft 32 kts 303°
2026-05-08 17:18 26.26439 50.64479 14 ft 89 kts 302°
2026-05-08 17:18 26.26882 50.63720 17 ft 142 kts 304°
2026-05-08 17:18 26.27490 50.62721 384 ft 159 kts 304°
2026-05-08 17:18 26.28168 50.61678 813 ft 180 kts 315°
2026-05-08 17:19 26.29201 50.60763 1339 ft 195 kts 332°
2026-05-08 17:19 26.30458 50.60240 2293 ft 190 kts 347°
2026-05-08 17:19 26.31791 50.60158 3210 ft 195 kts
2026-05-08 17:19 26.33157 50.60541 3764 ft 219 kts 20°
2026-05-08 17:20 26.34443 50.61623 4295 ft 244 kts 49°
2026-05-08 17:20 26.35049 50.63361 5431 ft 243 kts 81°
2026-05-08 17:20 26.34829 50.65248 6340 ft 253 kts 111°
2026-05-08 17:20 26.33896 50.66932 7112 ft 260 kts 127°
2026-05-08 17:21 26.32728 50.68488 7909 ft 262 kts 131°
2026-05-08 17:21 26.31518 50.70013 8723 ft 264 kts 130°
2026-05-08 17:21 26.30476 50.71712 9478 ft 268 kts 116°
2026-05-08 17:21 26.29853 50.73676 10167 ft 271 kts 102°
2026-05-08 17:22 26.29611 50.75761 10879 ft 272 kts 93°
2026-05-08 17:22 26.29590 50.77859 11592 ft 272 kts 89°
2026-05-08 17:22 26.29667 50.79977 12265 ft 274 kts 88°
2026-05-08 17:22 26.29774 50.82074 12927 ft 275 kts 88°
2026-05-08 17:23 26.29885 50.84234 13586 ft 276 kts 88°
2026-05-08 17:23 26.29987 50.86351 14144 ft 280 kts 89°
2026-05-08 17:23 26.30086 50.88569 14633 ft 285 kts 89°
2026-05-08 17:23 26.30181 50.90790 15149 ft 289 kts 89°
2026-05-08 17:24 26.30259 50.93041 15657 ft 292 kts 94°
2026-05-08 17:24 26.29920 50.95261 16131 ft 291 kts 113°
2026-05-08 17:24 26.29029 50.97273 16645 ft 290 kts 123°
2026-05-08 17:24 26.28035 50.99209 17174 ft 293 kts 123°
2026-05-08 17:25 26.27024 51.01203 17696 ft 297 kts 123°
2026-05-08 17:25 26.25997 51.03243 18213 ft 300 kts 123°
2026-05-08 17:25 26.24990 51.05247 18680 ft 301 kts 123°
2026-05-08 17:25 26.23966 51.07287 19128 ft 303 kts 123°
2026-05-08 17:26 26.22933 51.09344 19579 ft 305 kts 123°
2026-05-08 17:26 26.21896 51.11409 20021 ft 307 kts 123°
2026-05-08 17:26 26.20847 51.13497 20443 ft 310 kts 123°
2026-05-08 17:26 26.19792 51.15593 20846 ft 312 kts 123°
2026-05-08 17:27 26.18728 51.17708 21272 ft 314 kts 123°
2026-05-08 17:27 26.17655 51.19840 21672 ft 316 kts 124°
2026-05-08 17:27 26.16578 51.21979 22058 ft 318 kts 124°
2026-05-08 17:27 26.15490 51.24138 22449 ft 320 kts 124°
2026-05-08 17:28 26.14394 51.26311 22789 ft 323 kts 124°
2026-05-08 17:28 26.13279 51.28518 22991 ft 332 kts 124°
2026-05-08 17:28 26.12134 51.30782 23243 ft 338 kts 124°
2026-05-08 17:28 26.10979 51.33071 23598 ft 340 kts 124°
2026-05-08 17:29 26.09819 51.35372 23910 ft 342 kts 124°
2026-05-08 17:29 26.08650 51.37687 24218 ft 344 kts 124°
2026-05-08 17:29 26.07474 51.40014 24513 ft 346 kts 124°
2026-05-08 17:29 26.06289 51.42355 24766 ft 351 kts 125°
2026-05-08 17:30 26.05073 51.44750 24860 ft 360 kts 125°
2026-05-08 17:30 26.03820 51.47215 24872 ft 373 kts 124°
2026-05-08 17:30 26.02520 51.49771 24875 ft 386 kts 124°
2026-05-08 17:30 26.01179 51.52410 24873 ft 399 kts 124°
2026-05-08 17:31 25.99791 51.55142 24882 ft 412 kts 124°
2026-05-08 17:31 25.98358 51.57964 24879 ft 425 kts 124°
2026-05-08 17:31 25.96882 51.60868 24874 ft 438 kts 124°
2026-05-08 17:31 25.95361 51.63859 24870 ft 450 kts 123°
2026-05-08 17:32 25.93801 51.66925 24872 ft 462 kts 123°
2026-05-08 17:32 25.92198 51.70073 24867 ft 473 kts 123°
2026-05-08 17:32 25.90559 51.73290 24868 ft 484 kts 123°
2026-05-08 17:32 25.88911 51.76592 24865 ft 494 kts 122°
2026-05-08 17:33 25.87281 51.79938 24862 ft 503 kts 122°
2026-05-08 17:33 25.85588 51.83427 24863 ft 511 kts 122°
2026-05-08 17:33 25.83895 51.86923 24861 ft 517 kts 121°
2026-05-08 17:33 25.82348 51.90546 24863 ft 522 kts 118°
2026-05-08 17:34 25.80819 51.94208 24863 ft 524 kts 118°
2026-05-08 17:34 25.79279 51.97883 24863 ft 526 kts 118°
2026-05-08 17:34 25.77728 52.01573 24867 ft 528 kts 118°
2026-05-08 17:34 25.76176 52.05260 24868 ft 528 kts 118°
2026-05-08 17:35 25.74619 52.08953 24865 ft 529 kts 118°
2026-05-08 17:35 25.73080 52.12602 24862 ft 529 kts 118°
2026-05-08 17:35 25.71518 52.16302 24862 ft 530 kts 118°
2026-05-08 17:35 25.69957 52.19996 24862 ft 530 kts 118°
2026-05-08 17:36 25.68392 52.23697 24862 ft 530 kts 118°
2026-05-08 17:36 25.66826 52.27397 24862 ft 530 kts 118°
2026-05-08 17:36 25.65257 52.31098 24858 ft 530 kts 118°
2026-05-08 17:36 25.63419 52.34604 24862 ft 524 kts 129°
2026-05-08 17:37 25.61055 52.37649 24858 ft 519 kts 140°
2026-05-08 17:37 25.58256 52.40120 24855 ft 493 kts 151°
2026-05-08 17:37 25.55303 52.41828 24856 ft 467 kts 161°
2026-05-08 17:37 25.52323 52.43023 24854 ft 449 kts 164°
2026-05-08 17:38 25.49377 52.44184 24859 ft 449 kts 163°
2026-05-08 17:38 25.46441 52.45352 24855 ft 448 kts 163°
2026-05-08 17:38 25.43512 52.46528 24857 ft 448 kts 163°
2026-05-08 17:38 25.40588 52.47709 24858 ft 447 kts 163°
2026-05-08 17:39 25.37666 52.48891 24856 ft 447 kts 163°
2026-05-08 17:39 25.34749 52.50071 24859 ft 447 kts 163°
2026-05-08 17:39 25.31870 52.51237 24860 ft 446 kts 163°
2026-05-08 17:39 25.28950 52.52419 24860 ft 447 kts 163°
2026-05-08 17:40 25.26029 52.53608 24862 ft 449 kts 163°
2026-05-08 17:40 25.23093 52.54803 24859 ft 451 kts 163°
2026-05-08 17:40 25.20137 52.56002 24860 ft 453 kts 163°
2026-05-08 17:40 25.17221 52.57347 24862 ft 457 kts 155°
2026-05-08 17:41 25.14574 52.59308 24864 ft 464 kts 143°
2026-05-08 17:41 25.12313 52.61883 24862 ft 470 kts 130°
2026-05-08 17:41 25.10558 52.64947 24866 ft 476 kts 120°
2026-05-08 17:41 25.09076 52.68223 24861 ft 477 kts 119°
2026-05-08 17:42 25.07617 52.71517 24863 ft 478 kts 119°
2026-05-08 17:42 25.06204 52.74843 24864 ft 481 kts 115°
2026-05-08 17:42 25.05088 52.78326 24855 ft 484 kts 109°
2026-05-08 17:42 25.04260 52.81932 24857 ft 486 kts 107°
2026-05-08 17:43 25.03454 52.85550 24862 ft 486 kts 107°
2026-05-08 17:43 25.02638 52.89163 24857 ft 486 kts 107°
2026-05-08 17:43 25.01817 52.92786 24853 ft 487 kts 107°
2026-05-08 17:43 25.00993 52.96408 24853 ft 487 kts 107°
2026-05-08 17:44 25.00168 53.00034 24854 ft 488 kts 107°
2026-05-08 17:44 24.99342 53.03658 24851 ft 488 kts 107°
2026-05-08 17:44 24.98514 53.07290 24852 ft 488 kts 107°
2026-05-08 17:44 24.97682 53.10919 24851 ft 489 kts 107°
2026-05-08 17:45 24.96846 53.14552 24854 ft 489 kts 107°
2026-05-08 17:45 24.96010 53.18180 24850 ft 489 kts 107°
2026-05-08 17:45 24.95174 53.21808 24845 ft 489 kts 107°
2026-05-08 17:45 24.94345 53.25397 24847 ft 489 kts 107°
2026-05-08 17:46 24.93495 53.29077 24849 ft 489 kts 107°
2026-05-08 17:46 24.92655 53.32708 24845 ft 490 kts 107°
2026-05-08 17:46 24.91813 53.36346 24843 ft 490 kts 107°
2026-05-08 17:46 24.90971 53.39978 24846 ft 490 kts 107°
2026-05-08 17:47 24.90109 53.43604 24843 ft 489 kts 108°
2026-05-08 17:47 24.89145 53.47194 24842 ft 489 kts 110°
2026-05-08 17:47 24.88140 53.50768 24842 ft 489 kts 110°
2026-05-08 17:47 24.87471 53.53140 24842 ft 489 kts 110°
2026-05-08 17:48 24.86150 53.57874 24837 ft 489 kts 110°
2026-05-08 17:48 24.85160 53.61454 24837 ft 489 kts 109°
2026-05-08 17:48 24.84175 53.65034 24839 ft 489 kts 109°
2026-05-08 17:48 24.83189 53.68624 24838 ft 489 kts 109°
2026-05-08 17:49 24.82205 53.72207 24835 ft 489 kts 109°
2026-05-08 17:49 24.81219 53.75792 24839 ft 489 kts 109°
2026-05-08 17:49 24.80232 53.79376 24836 ft 489 kts 109°
2026-05-08 17:49 24.79245 53.82958 24832 ft 489 kts 109°
2026-05-08 17:50 24.78257 53.86540 24833 ft 489 kts 109°
2026-05-08 17:50 24.77268 53.90120 24832 ft 489 kts 109°
2026-05-08 17:50 24.76278 53.93702 24830 ft 489 kts 109°
2026-05-08 17:50 24.75555 53.97370 24830 ft 493 kts 98°
2026-05-08 17:51 24.75474 54.01146 24832 ft 496 kts 87°
2026-05-08 17:51 24.76052 54.04891 24828 ft 499 kts 76°
2026-05-08 17:51 24.77083 54.08540 24826 ft 500 kts 74°
2026-05-08 17:51 24.78132 54.12184 24825 ft 500 kts 74°
2026-05-08 17:52 24.79179 54.15836 24825 ft 500 kts 74°
2026-05-08 17:52 24.80221 54.19487 24826 ft 500 kts 74°
2026-05-08 17:52 24.82266 54.26678 23890 ft 489 kts 74°
2026-05-08 17:53 24.83283 54.30268 22885 ft 493 kts 74°
2026-05-08 17:53 24.84301 54.33867 22042 ft 490 kts 74°
2026-05-08 17:53 24.84971 54.36230 21591 ft 486 kts 74°
2026-05-08 17:53 24.85970 54.39758 20937 ft 479 kts 74°
2026-05-08 17:54 24.87273 54.44362 20141 ft 470 kts 74°
2026-05-08 17:54 24.88230 54.47746 19901 ft 455 kts 74°
2026-05-08 17:54 24.89150 54.50999 19823 ft 436 kts 74°
2026-05-08 17:54 24.89751 54.53129 19827 ft 423 kts 74°
2026-05-08 17:55 24.90604 54.56151 19826 ft 405 kts 74°
2026-05-08 17:55 24.91421 54.59049 19823 ft 387 kts 74°
2026-05-08 17:55 24.92203 54.61813 19824 ft 370 kts 72°
2026-05-08 17:55 24.93281 54.64321 19799 ft 356 kts 58°
2026-05-08 17:56 24.94857 54.66422 19272 ft 359 kts 42°
2026-05-08 17:56 24.96877 54.68095 18594 ft 367 kts 36°
2026-05-08 17:56 24.98989 54.69722 17877 ft 374 kts 36°
2026-05-08 17:56 25.01115 54.71366 16994 ft 383 kts 36°
2026-05-08 17:57 25.03350 54.73105 16046 ft 393 kts 36°
2026-05-08 17:57 25.05602 54.74862 15345 ft 397 kts 36°
2026-05-08 17:57 25.07820 54.76596 15026 ft 389 kts 36°
2026-05-08 17:57 25.10004 54.78306 14877 ft 376 kts 36°
2026-05-08 17:58 25.12095 54.79945 14820 ft 360 kts 37°
2026-05-08 17:58 25.14089 54.81511 14822 ft 344 kts 37°
2026-05-08 17:58 25.15963 54.83038 14821 ft 327 kts 41°
2026-05-08 17:58 25.17654 54.84626 14818 ft 311 kts 42°
2026-05-08 17:59 25.19262 54.86128 14817 ft 298 kts 43°
2026-05-08 17:59 25.20867 54.87646 14830 ft 311 kts 42°
2026-05-08 17:59 25.22550 54.89237 14826 ft 324 kts 42°
2026-05-08 17:59 25.24293 54.90871 14812 ft 336 kts 41°
2026-05-08 18:00 25.26103 54.92559 14820 ft 347 kts 41°
2026-05-08 18:00 25.29347 54.96666 14819 ft 365 kts 62°
2026-05-08 18:00 25.30470 54.99219 14816 ft 374 kts 66°
2026-05-08 18:01 25.31584 55.01843 14822 ft 383 kts 66°
2026-05-08 18:01 25.32729 55.04518 14819 ft 391 kts 66°
2026-05-08 18:01 25.33876 55.07279 14804 ft 398 kts 71°
2026-05-08 18:01 25.34471 55.10266 14804 ft 401 kts 88°
2026-05-08 18:02 25.34305 55.13291 14546 ft 391 kts 103°
2026-05-08 18:02 25.33443 55.16133 13699 ft 393 kts 119°
2026-05-08 18:02 25.31888 55.18638 12588 ft 400 kts 133°
2026-05-08 18:02 25.29894 55.20829 11507 ft 408 kts 138°
2026-05-08 18:03 25.27855 55.22941 10779 ft 407 kts 137°
2026-05-08 18:03 25.25819 55.25160 10183 ft 403 kts 136°
2026-05-08 18:03 25.23955 55.27311 9910 ft 390 kts 134°
2026-05-08 18:03 25.22101 55.29520 9184 ft 390 kts 134°
2026-05-08 18:04 25.20243 55.31774 8396 ft 392 kts 133°
2026-05-08 18:04 25.18553 55.34040 8057 ft 382 kts 126°
2026-05-08 18:04 25.17134 55.36490 7939 ft 365 kts 122°
2026-05-08 18:04 25.15853 55.38789 7918 ft 347 kts 122°
2026-05-08 18:05 25.14612 55.40998 7920 ft 330 kts 122°
2026-05-08 18:05 25.13412 55.43125 7489 ft 328 kts 122°
2026-05-08 18:05 25.12191 55.45286 6777 ft 336 kts 122°
2026-05-08 18:05 25.10934 55.47507 6007 ft 345 kts 122°
2026-05-08 18:06 25.09644 55.49791 5094 ft 357 kts 122°
2026-05-08 18:06 25.08310 55.52156 4112 ft 370 kts 122°
2026-05-08 18:06 25.06955 55.54563 3492 ft 365 kts 122°
2026-05-08 18:06 25.05658 55.56889 3184 ft 347 kts 122°
2026-05-08 18:07 25.04435 55.59093 3019 ft 326 kts 122°
2026-05-08 18:07 25.03288 55.61158 2950 ft 304 kts 122°
2026-05-08 18:07 25.02197 55.63109 2952 ft 300 kts 122°
2026-05-08 18:07 25.01096 55.65065 2947 ft 296 kts 122°
2026-05-08 18:08 25.00039 55.66945 2951 ft 282 kts 122°
2026-05-08 18:08 24.99037 55.68741 3090 ft 271 kts 122°
2026-05-08 18:08 24.98059 55.70508 3349 ft 271 kts 121°
2026-05-08 18:08 24.97065 55.72304 3442 ft 277 kts 121°
2026-05-08 18:09 24.96049 55.74128 3451 ft 276 kts 122°
2026-05-08 18:09 24.95170 55.75926 3449 ft 260 kts 105°
2026-05-08 18:09 24.95048 55.77865 3460 ft 260 kts 75°
2026-05-08 18:09 24.95810 55.79684 3450 ft 264 kts 46°
2026-05-08 18:10 24.97164 55.80891 3445 ft 241 kts 20°
2026-05-08 18:10 24.98710 55.81228 3451 ft 224 kts 350°
2026-05-08 18:10 25.00091 55.80756 3457 ft 236 kts 327°
2026-05-08 18:10 25.01299 55.79522 3423 ft 239 kts 302°
2026-05-08 18:11 25.02187 55.77958 3373 ft 241 kts 301°
2026-05-08 18:11 25.03073 55.76376 3327 ft 243 kts 301°
2026-05-08 18:11 25.03957 55.74795 3278 ft 243 kts 301°
2026-05-08 18:11 25.04246 55.74277 3259 ft 243 kts 301°
2026-05-08 18:12 25.04434 55.73941 3244 ft 243 kts 301°
2026-05-08 18:12 25.05235 55.72546 3218 ft 253 kts 303°
2026-05-08 18:12 25.06206 55.70892 3199 ft 261 kts 302°
2026-05-08 18:12 25.07184 55.69180 3177 ft 266 kts 301°
2026-05-08 18:13 25.07990 55.67755 3154 ft 270 kts 304°
2026-05-08 18:13 25.09115 55.66084 3124 ft 272 kts 306°
2026-05-08 18:13 25.10152 55.64424 2970 ft 250 kts 301°
2026-05-08 18:13 25.11039 55.62871 2945 ft 230 kts 300°
2026-05-08 18:14 25.11851 55.61423 2940 ft 214 kts 300°
2026-05-08 18:14 25.12619 55.60039 2918 ft 219 kts 300°
2026-05-08 18:14 25.13428 55.58606 2841 ft 219 kts 301°
2026-05-08 18:14 25.14242 55.57215 2870 ft 212 kts 301°
2026-05-08 18:15 25.15012 55.55840 2862 ft 209 kts 300°
2026-05-08 18:15 25.15758 55.54463 2710 ft 204 kts 300°
2026-05-08 18:15 25.16433 55.53171 2760 ft 190 kts 298°
2026-05-08 18:15 25.17085 55.51909 2718 ft 186 kts 301°
2026-05-08 18:16 25.17768 55.50735 2540 ft 183 kts 301°
2026-05-08 18:16 25.18440 55.49577 2448 ft 173 kts 301°
2026-05-08 18:16 25.19046 55.48469 2227 ft 171 kts 300°
2026-05-08 18:16 25.19648 55.47361 1993 ft 161 kts 300°
2026-05-08 18:17 25.20220 55.46308 1697 ft 163 kts 300°
2026-05-08 18:17 25.20804 55.45245 1379 ft 162 kts 300°
2026-05-08 18:17 25.21369 55.44206 1151 ft 152 kts 300°
2026-05-08 18:17 25.21904 55.43236 934 ft 148 kts 301°
2026-05-08 18:18 25.22482 55.42185 911 ft 172 kts 301°
2026-05-08 18:18 25.23137 55.41000 661 ft 178 kts 300°
2026-05-08 18:18 25.23772 55.39879 426 ft 167 kts 298°
2026-05-08 18:18 25.24363 55.38826 252 ft 154 kts 300°
2026-05-08 18:19 25.24913 55.37845 54 ft 145 kts 300°
2026-05-08 18:19 25.25396 55.36966 33 ft 129 kts 300°
2026-05-08 18:19 25.25738 55.36337 29 ft 53 kts 301°
2026-05-08 18:19 25.25814 55.36209 31 ft 2 kts 304°
2026-05-08 18:20 25.25902 55.36046 29 ft 45 kts 293°
2026-05-08 18:20 25.25957 55.35628 18 ft 37 kts 284°
2026-05-08 18:20 25.25988 55.35427 18 ft 27 kts 255°
2026-05-08 18:20 25.25867 55.35286 16 ft 27 kts 211°
2026-05-08 18:21 25.25707 55.35179 18 ft 26 kts 206°
2026-05-08 18:21 25.25584 55.35221 18 ft 19 kts 124°
2026-05-08 18:21 25.25485 55.35323 14 ft 20 kts 166°
2026-05-08 18:21 25.25408 55.35331 13 ft 0 kts 211°
2026-05-08 18:22 25.25402 55.35328 13 ft 0 kts 209°
2026-05-08 18:22 25.25401 55.35327 13 ft 0 kts 209°